TimeCDT,TemperatureF,Dew PointF,Humidity,Sea Level PressureIn,VisibilityMPH,Wind Direction,Wind SpeedMPH,Gust SpeedMPH,PrecipitationIn,Events,Conditions,WindDirDegrees,DateUTC
12:56 AM,43.0,34.9,73,30.37,10.0,Calm,Calm,-,N/A,,Clear,0,2013-04-21 05:56:00
1:56 AM,41.9,34.9,76,30.36,10.0,Calm,Calm,-,N/A,,Clear,0,2013-04-21 06:56:00
2:56 AM,41.0,34.9,79,30.36,10.0,Calm,Calm,-,N/A,,Clear,0,2013-04-21 07:56:00
3:56 AM,38.8,34.9,86,30.38,10.0,Calm,Calm,-,N/A,,Clear,0,2013-04-21 08:56:00
4:56 AM,37.9,34.9,89,30.38,10.0,Calm,Calm,-,N/A,,Clear,0,2013-04-21 09:56:00
5:56 AM,37.9,32.9,82,30.39,10.0,Calm,Calm,-,N/A,,Clear,0,2013-04-21 10:56:00
6:56 AM,38.8,34.0,83,30.42,10.0,Calm,Calm,-,N/A,,Clear,0,2013-04-21 11:56:00
7:56 AM,45.0,34.9,68,30.43,10.0,Calm,Calm,-,N/A,,Clear,0,2013-04-21 12:56:00
8:56 AM,50.0,36.0,59,30.44,10.0,Calm,Calm,-,N/A,,Clear,0,2013-04-21 13:56:00
9:56 AM,56.8,36.0,46,30.44,10.0,NE,8.1,-,N/A,,Clear,50,2013-04-21 14:56:00
10:56 AM,61.9,34.0,35,30.43,10.0,ENE,5.8,-,N/A,,Clear,70,2013-04-21 15:56:00
11:56 AM,63.9,34.0,33,30.40,10.0,ENE,6.9,-,N/A,,Clear,70,2013-04-21 16:56:00
12:56 PM,65.8,36.0,33,30.37,10.0,NE,11.5,-,N/A,,Clear,50,2013-04-21 17:56:00
1:56 PM,66.9,36.0,32,30.34,10.0,NNE,4.6,-,N/A,,Clear,30,2013-04-21 18:56:00
2:56 PM,68.9,36.9,31,30.31,10.0,East,6.9,-,N/A,,Clear,90,2013-04-21 19:56:00
3:56 PM,70.0,36.9,30,30.29,10.0,ENE,8.1,-,N/A,,Clear,60,2013-04-21 20:56:00
4:56 PM,70.0,36.9,30,30.28,10.0,NNW,9.2,-,N/A,,Clear,340,2013-04-21 21:56:00
6:56 PM,65.8,38.8,37,30.29,10.0,Calm,Calm,-,N/A,,Clear,0,2013-04-21 23:56:00
7:56 PM,61.9,41.0,46,30.30,10.0,Calm,Calm,-,N/A,,Clear,0,2013-04-22 00:56:00
8:56 PM,54.9,43.9,66,30.32,10.0,Calm,Calm,-,N/A,,Clear,0,2013-04-22 01:56:00
9:56 PM,52.9,41.9,66,30.32,10.0,Calm,Calm,-,N/A,,Clear,0,2013-04-22 02:56:00
10:56 PM,50.9,43.0,74,30.32,10.0,Calm,Calm,-,N/A,,Clear,0,2013-04-22 03:56:00
11:56 PM,47.8,41.9,80,30.31,10.0,Calm,Calm,-,N/A,,Clear,0,2013-04-22 04:56:00